This is the latest recevied weather packets stored in our database for station/object KJ7BRE-1. If no packets are shown the sender has not sent any weather packets the latest 10 day(s).
| Time | Temp. | Humidity | Pressure | Rain* | Wind** | Luminosity | Snow |
|---|---|---|---|---|---|---|---|
| 1787439622 | 25° C | 51% | 1015.6 hPa | 0 mm | - | - | - |
| 1787439321 | 24.44° C | 50% | 1015.6 hPa | 0 mm | - | - | - |
| 1787439020 | 23.89° C | 52% | 1015.6 hPa | 0 mm | - | - | - |
| 1787438719 | 24.44° C | 51% | 1015.6 hPa | 0 mm | - | - | - |
| 1787438418 | 24.44° C | 52% | 1015.6 hPa | 0 mm | - | - | - |
| 1787438117 | 24.44° C | 51% | 1015.6 hPa | 0 mm | - | - | - |
| 1787437815 | 25° C | 52% | 1015.9 hPa | 0 mm | - | - | - |
| 1787437514 | 25° C | 52% | 1015.9 hPa | 0 mm | - | - | - |
| 1787437213 | 24.44° C | 50% | 1015.9 hPa | 0 mm | - | - | - |
| 1787436912 | 24.44° C | 51% | 1016.3 hPa | 0 mm | - | - | - |
| 1787436610 | 24.44° C | 53% | 1016.3 hPa | 0 mm | - | - | - |
| 1787436008 | 23.33° C | 54% | 1016.3 hPa | 0 mm | - | - | - |
| 1787435707 | 23.89° C | 54% | 1016.3 hPa | 0 mm | - | - | - |
| 1787435406 | 23.89° C | 53% | 1016.3 hPa | 0 mm | - | - | - |
| 1787435104 | 23.33° C | 55% | 1016.6 hPa | 0 mm | - | - | - |
| 1787434801 | 23.33° C | 55% | 1016.6 hPa | 0 mm | - | - | - |
| 1787434500 | 23.89° C | 54% | 1016.6 hPa | 0 mm | - | - | - |
| 1787434199 | 22.78° C | 57% | 1016.6 hPa | 0 mm | - | - | - |
| 1787433898 | 22.78° C | 56% | 1016.9 hPa | 0 mm | - | - | - |
| 1787433596 | 22.78° C | 57% | 1016.9 hPa | 0 mm | - | - | - |
| 1787433295 | 22.22° C | 60% | 1016.9 hPa | 0 mm | - | - | - |
| 1787432994 | 22.22° C | 57% | 1017.3 hPa | 0 mm | - | - | - |
| 1787432693 | 22.22° C | 58% | 1016.9 hPa | 0 mm | - | - | - |
| 1787432392 | 21.67° C | 59% | 1016.9 hPa | 0 mm | - | - | - |
| 1787432091 | 21.67° C | 61% | 1016.9 hPa | 0 mm | - | - | - |
* Rain latest hour (hover to see other rain measurements)
** Current wind speed in m/s (hover to see current wind gust speed)